loading
|
Showing default

OPS 9327 (IDSCS 14), 2654

Orbit data source: Space-Track

OPS 9327 (IDSCS 14), 2654 is a payload satellite owned by USAF SSD (US) that was launched on Wed, 18 Jan 1967 UTC via a TITAN IIIC launch vehicle from the Air Force Eastern Test Range (AFETR). Payloads include a variety of satellites, spacecraft, and rockets equipped with specific instruments for various scientific and technological missions. These include communications satellites like Starlink; space stations such as the ISS; scientific satellites like the Hubble; Earth observation satellites from companies like Planet Labs, Umbra, and HawkEye 360; GPS; miniature CubeSats for education and research; and military/defense satellites.

Next visibility unknown
Next conjunction unknown
Loading greatness...
OPS 9327 (IDSCS 14) details
Identifier
2654, 1967-003G
Orbit
Active
Last TLE update1 day ago
Origin
Flag of USUSAF SSD (US)
ManufacturerPhilco-Ford WDL
MissionNon-operational Defense Communications
Bus & MotorIDCSP, Unknown motor
Mass45 kg wet, 45 kg dry
Launch date (UTC)
1967-01-18 (58 years ago)
Launch vehicle
TITAN IIIC
Launch site
Air Force Eastern Test Range (AFETR)
Object type
Payload
Rocket body
Debris
Shape & HBRIco Poly, 0.9 m
Radar Cross Section0.926 m², Medium (>0.1 m² and < 1m²)

Expand to show TLE details & history

TLE from 1 day ago
0 OPS 9327 (IDSCS 14)
1 02654U 67003G   24285.36993622 -.00000123  00000-0  00000-0 0  9991
2 02654   6.9609  52.4523 0057667  35.2483 149.7424  1.07511973132872
Epoch: 2024-10-11T08:52Z
Definitive object data (Epoch: 2024-10-11T08:52:42.489Z)
Latitude-0.63807°
Longitude84.08915°
Altitude34,071.597 km
Speed3.131 km/s
True Right ascension15h 50m 49s
True Declination0° 38' 15"
Sunlit
Object was in daylight at TLE epoch
Predictive object data (real-time)
Latitude3.00711°
Longitude-75.64448°
Altitude33,642.848 km
Speed3.165 km/s
Apparent Right ascension04h 53m 10s
Apparent Declination-2° 35' 54"
Sunlit
Object is in daylight
Predictive observer data (real-time)
Local Sidereal Time14:06:15
Azimuth303.709° NW
Elevation-36.934°
Doppler factor1
Orbital elements
Apogee34,104.894 km
Perigee33,640.664 km
Semi-major axis40,250.916 km
Eccentricity0.0057667
Inclination6.9609°
RAAN52.4523°
Arg. of periapsis35.2483°
True anomaly150.07331°
Mean anomaly149.7424°
Eccentric anomaly149.90806°
Mean motion0.26877 °/min
BSTARUnknown
Period1339.44 mins
No data available

OPS 9327 (IDSCS 14) Visibility forecast

Observer location: 39.9160978°, -105.1181434

OPS 9327 (IDSCS 14) is not visible in the next 10 days
Span
Click to sort rows by Start time (UTC) header in descending order
Start Az.
Max El. time (UTC)
Max El. Az.
Max El.
End time (UTC)
End Az.